Home   Weather   Florø   Past weeks

Flag for Norway Past Weather in Florø, Norway — Yesterday and Last 2 Weeks

Now
39 °F

Mostly cloudy.


Feels Like: 34 °F
Forecast: 34 / 39 °F
Wind: 8 mph from Northwest

Location: Floro

Current Time: Apr 23, 2017 at 12:10:25 pm

Latest Report: Apr 23, 2017 at 11:20 am


Visibility: N/A

Pressure: 29.98 "Hg

Humidity: 65%

Dew Point: 28 °F

Location of FlorøLocation

Past Weather in Florø — Graph

°F

Florø Temperature Yesterday

Maximum temperature yesterday: 43 °F (at 12:20 pm)
Minimum temperature yesterday: 34 °F (at 10:50 pm)
Average temperature yesterday: 40 °F

High & Low Weather Summary for the Past Weeks

 TemperatureHumidityPressure
High48 °F (Apr 14, 4:20 pm)100% (Apr 12, 5:20 am)30.54 "Hg (Apr 12, 5:20 am)
Low32 °F (Apr 14, 5:50 am)34% (Apr 14, 2:50 pm)29.42 "Hg (Apr 12, 6:20 am)
Average41 °F78%29.90 "Hg
* Reported Apr 8 10:20 am — Apr 23 10:50 am, Florø, Weather by CustomWeather, © 2017

Note: Actual official high and low records may vary slightly from our data, if they occured in-between our weather recording intervals... More about our weather records

Advertising

Florø Weather History for the Previous 24 Hours

Scroll right to see more
 ConditionsComfort  
Time TempWeatherWind HumidityBarometerVisibility
10:50 am
Sun, Apr 23
37 °FMostly cloudy.5 mph75%29.98 "HgN/A
10:20 am39 °FScattered clouds.8 mph75%29.98 "HgN/A
9:50 am37 °FScattered clouds.12 mph75%30.01 "HgN/A
9:20 am37 °FScattered clouds.10 mph75%30.01 "HgN/A
8:50 am36 °FScattered clouds.5 mph93%30.01 "HgN/A
8:20 am34 °FBroken clouds.8 mph93%29.98 "HgN/A
7:50 am34 °FLight snow. Dense fog.20 mph87%30.01 "Hg1 mi
7:20 am36 °FPassing clouds.9 mph81%29.98 "HgN/A
6:50 am36 °FChilly.10 mph81%29.98 "HgN/A
6:20 am36 °FSprinkles. Broken clouds.12 mph87%29.98 "HgN/A
5:50 am34 °FSprinkles. Passing clouds.22 mph93%29.98 "Hg2 mi
5:20 am34 °FPassing clouds.10 mph93%29.98 "HgN/A
4:50 am36 °FSprinkles. Overcast.21 mph87%29.98 "Hg5 mi
4:20 am36 °FPassing clouds.16 mph87%29.98 "HgN/A
3:50 am36 °FPassing clouds.20 mph87%29.98 "HgN/A
3:20 am36 °FPartly cloudy.20 mph81%30.01 "HgN/A
2:50 am37 °FMostly cloudy.14 mph70%30.01 "HgN/A
2:20 am36 °FSprinkles. Passing clouds.8 mph87%30.01 "HgN/A
1:50 am34 °FSprinkles. Overcast.15 mph93%30.04 "HgN/A
1:20 am34 °FSnow flurries. Overcast.10 mph87%30.04 "Hg1 mi
12:50 am37 °FMostly cloudy.21 mph70%30.04 "HgN/A
12:20 am37 °FLight rain. Mostly cloudy.25 mph70%30.04 "HgN/A
11:50 pm
Sat, Apr 22
36 °FOvercast.22 mph75%30.04 "HgN/A
11:20 pm36 °FMostly cloudy.9 mph87%30.04 "HgN/A
10:50 pm34 °FSprinkles. Mostly cloudy.13 mph87%30.04 "HgN/A
10:20 pm36 °FSprinkles. Partly cloudy.20 mph81%30.04 "HgN/A
9:50 pm37 °FPartly cloudy.24 mph75%30.04 "HgN/A
9:20 pm37 °FSprinkles. Broken clouds.28 mph75%30.04 "HgN/A
8:20 pm37 °FSprinkles. Partly sunny.26 mph75%30.04 "HgN/A
7:50 pm39 °FOvercast.23 mph70%30.04 "HgN/A
7:20 pm39 °FOvercast.23 mph70%30.04 "HgN/A
6:50 pm39 °FMostly cloudy.23 mph70%30.04 "HgN/A
6:20 pm39 °FBroken clouds.17 mph81%30.04 "HgN/A
5:50 pm37 °FSprinkles. Broken clouds.28 mph87%30.04 "HgN/A
5:20 pm39 °FSprinkles. Broken clouds.21 mph87%30.01 "HgN/A
4:50 pm39 °FScattered showers. Scattered clouds.9 mph81%30.04 "HgN/A
4:20 pm41 °FScattered clouds.12 mph76%30.04 "HgN/A
3:50 pm39 °FScattered showers. Scattered clouds.14 mph87%30.04 "HgN/A
3:20 pm43 °FScattered clouds.15 mph71%30.04 "HgN/A
2:50 pm43 °FScattered clouds.12 mph66%30.04 "HgN/A
2:20 pm43 °FScattered clouds.13 mph71%30.04 "HgN/A
1:50 pm43 °FScattered clouds.15 mph71%30.04 "HgN/A
1:20 pm43 °FScattered clouds.18 mph76%30.01 "HgN/A
12:50 pm43 °FScattered clouds.16 mph76%30.01 "HgN/A
12:20 pm43 °FPassing clouds.13 mph71%30.04 "HgN/A
Weather by CustomWeather, © 2017

See weather overviewHow to use our weather pages